This is the latest recevied weather packets stored in our database for station/object OM0AGP-15. If no packets are shown the sender has not sent any weather packets the latest 10 day(s).
| Time | Temp. | Humidity | Pressure | Rain* | Wind** | Luminosity | Snow |
|---|---|---|---|---|---|---|---|
| 1777840942 | 8.89° C | 48% | 1018.4 hPa | - | - | - | - |
| 1777840042 | 9.44° C | 46% | 1018.4 hPa | - | - | - | - |
| 1777839142 | 10° C | 44% | 1018.4 hPa | - | - | - | - |
| 1777838242 | 10.56° C | 42% | 1018.4 hPa | - | - | - | - |
| 1777837341 | 10.56° C | 40% | 1018.4 hPa | - | - | - | - |
| 1777836442 | 11.11° C | 39% | 1018.4 hPa | - | - | - | - |
| 1777835541 | 11.67° C | 39% | 1018.2 hPa | - | - | - | - |
| 1777834641 | 11.67° C | 39% | 1018.2 hPa | - | - | - | - |
| 1777833741 | 11.67° C | 38% | 1018 hPa | - | - | - | - |
| 1777832841 | 12.22° C | 37% | 1017.9 hPa | - | - | - | - |
| 1777831941 | 12.78° C | 36% | 1017.7 hPa | - | - | - | - |
| 1777831041 | 13.33° C | 35% | 1017.5 hPa | - | - | - | - |
| 1777830141 | 13.89° C | 33% | 1017.4 hPa | - | - | - | - |
| 1777829241 | 14.44° C | 33% | 1017.3 hPa | - | - | - | - |
| 1777828341 | 15° C | 32% | 1017.3 hPa | - | - | - | - |
| 1777827441 | 15° C | 34% | 1017.3 hPa | - | - | - | - |
| 1777826541 | 15.56° C | 34% | 1017.3 hPa | - | - | - | - |
| 1777825641 | 16.11° C | 33% | 1017.1 hPa | - | - | - | - |
| 1777824741 | 16.67° C | 33% | 1017.3 hPa | - | - | - | - |
| 1777823840 | 16.67° C | 33% | 1017.3 hPa | - | - | - | - |
| 1777822941 | 17.22° C | 32% | 1017.4 hPa | - | - | - | - |
| 1777822040 | 17.22° C | 33% | 1017.6 hPa | - | - | - | - |
| 1777821140 | 17.78° C | 33% | 1017.7 hPa | - | - | - | - |
| 1777820240 | 17.78° C | 32% | 1017.7 hPa | - | - | - | - |
| 1777819340 | 17.78° C | 31% | 1018 hPa | - | - | - | - |
* Rain since midnight (hover to see other rain measurements)
** Current wind speed in m/s (hover to see current wind gust speed)